Tucson, AZ

2:45 AM MST on August 27, 2016 (GMT -0700)
Tucson International

Weather History for KTUS - November, 2013

Change the Weather History Date:

Thursday, November 7, 2013

  Actual Average Record
Temperature  
Mean Temperature 68 °F 63 °F  
Max Temperature 82 °F 77 °F 90 °F (2007)
Min Temperature 54 °F 49 °F 28 °F (1947)
Degree Days  
Heating Degree Days 0 4  
Month to date heating degree days 10 21  
Since 1 July heating degree days 23 45  
Cooling Degree Days 3 2  
Month to date cooling degree days 10 16  
Year to date cooling degree days 3614 3135  
Growing Degree Days 18 (Base 50)    
Moisture  
Dew Point 19 °F    
Average Humidity 17    
Maximum Humidity 22    
Minimum Humidity 11    
Precipitation  
Precipitation 0.00 in 0.01 in 0.54 in (1963)
Month to date precipitation 0.12 0.12  
Year to date precipitation 5.60 10.21  
Snow  
Snow 0.00 in - - ()
Month to date snowfall 0.0  
Snow Depth 0.00 in    
Sea Level Pressure  
Sea Level Pressure 30.07 in    
Wind  
Wind Speed 12 mph (ESE)    
Max Wind Speed 30 mph    
Max Gust Speed 40 mph    
Visibility 10 miles    
Events      
T = Trace of Precipitation, MM = Missing Value Source: NWS Daily Summary

Daily Weather History Graph

Daily Weather History Graph

Search for Another Location

Airport or City:

Trip Planner

Search our weather history database for the weather conditions in past years. The results will help you decide how hot, cold, wet, or windy it might be!

Date:

Astronomy

Nov. 07, 2013 Rise Set
Actual Time 6:45 AM MST 5:28 PM MST
Civil Twilight 6:20 AM MST 5:54 PM MST
Nautical Twilight 5:51 AM MST 6:23 PM MST
Astronomical Twilight 5:22 AM MST 6:52 PM MST
Moon 10:54 AM MST (11/7) 9:46 PM MST (11/7)
Length of Visible Light 11h 33m
Length of Day
10h 42m
Waxing Crescent, 23% of the Moon is Illuminated
Nov 7
Waxing Crescent
Nov 9
First Quarter
Nov 17
Full
Nov 25
Last Quarter
Dec 2
New

Hourly Weather History & Observations

Time (MST) Temp. Dew Point Humidity Pressure Visibility Wind Dir Wind Speed Gust Speed Precip Events Conditions
12:53 AM 59.0 °F 16.0 °F 19% 30.13 in 10.0 mi East 9.2 mph - N/A   Clear
1:53 AM 55.9 °F 16.0 °F 21% 30.13 in 10.0 mi Calm Calm - N/A   Clear
2:53 AM 57.0 °F 10.9 °F 16% 30.11 in 10.0 mi ESE 5.8 mph - N/A   Clear
3:53 AM 57.0 °F 10.9 °F 16% 30.12 in 10.0 mi SE 12.7 mph - N/A   Clear
4:53 AM 59.0 °F 9.0 °F 14% 30.13 in 10.0 mi ESE 15.0 mph - N/A   Clear
5:53 AM 57.9 °F 7.0 °F 13% 30.14 in 10.0 mi East 10.4 mph - N/A   Clear
6:53 AM 57.0 °F 8.1 °F 14% 30.15 in 10.0 mi ESE 8.1 mph - N/A   Clear
7:53 AM 63.0 °F 10.9 °F 13% 30.16 in 10.0 mi SE 17.3 mph - N/A   Clear
8:53 AM 68.0 °F 17.1 °F 14% 30.16 in 10.0 mi ESE 26.5 mph 35.7 mph N/A   Clear
9:53 AM 71.1 °F 19.0 °F 14% 30.14 in 10.0 mi ESE 23.0 mph 40.3 mph N/A   Clear
10:53 AM 73.9 °F 19.9 °F 13% 30.12 in 10.0 mi ESE 20.7 mph 34.5 mph N/A   Clear
11:53 AM 75.9 °F 19.0 °F 12% 30.09 in 10.0 mi East 17.3 mph 31.1 mph N/A   Clear
12:53 PM 79.0 °F 21.0 °F 12% 30.04 in 10.0 mi East 20.7 mph 27.6 mph N/A   Clear
1:53 PM 80.1 °F 21.9 °F 12% 30.01 in 10.0 mi East 18.4 mph 27.6 mph N/A   Clear
2:53 PM 81.0 °F 21.9 °F 11% 29.99 in 10.0 mi East 16.1 mph 21.9 mph N/A   Clear
3:53 PM 82.0 °F 23.0 °F 11% 29.98 in 10.0 mi East 13.8 mph 21.9 mph N/A   Clear
4:53 PM 80.1 °F 25.0 °F 13% 29.98 in 10.0 mi East 13.8 mph - N/A   Clear
5:53 PM 75.9 °F 26.1 °F 16% 29.99 in 10.0 mi East 6.9 mph - N/A   Clear
6:53 PM 73.0 °F 27.0 °F 18% 30.00 in 10.0 mi East 6.9 mph - N/A   Clear
7:53 PM 69.1 °F 27.0 °F 21% 30.00 in 10.0 mi ENE 6.9 mph - N/A   Clear
8:53 PM 66.0 °F 25.0 °F 21% 30.01 in 10.0 mi Calm Calm - N/A   Clear
9:53 PM 64.9 °F 24.1 °F 21% 30.02 in 10.0 mi Calm Calm - N/A   Clear
10:53 PM 66.9 °F 25.0 °F 21% 30.01 in 10.0 mi ESE 9.2 mph - N/A   Clear
11:53 PM 66.0 °F 27.0 °F 23% 30.01 in 10.0 mi ESE 9.2 mph - N/A   Clear